When you browse on this site, cookies collect data to enhance your experience and personalize the content and advertising you see.
Visit our Privacy Policy to learn more. By continuing to use the site, you agree to this use of cookies and data.
  • en France
  • Liste des pays
  • À 7 jours
  • Température de l'eau
  • Carte météo
  • Widgets météo
  • user-avatar
    Se connecter

    Météo par heure à Chichester

    Ce jour, 18 Janvier, Samedi

    Heure Température Précipitation Vent Pression Humidité
    00:00 +2°C° 0 mm 6 m/s 763 mmHg 86%
    01:00 +1°C° 0 mm 6 m/s 764 mmHg 86%
    02:00 +1°C° 0 mm 5 m/s 765 mmHg 87%
    03:00 +1°C° 0 mm 5 m/s 765 mmHg 88%
    04:00 +1°C° 0 mm 5 m/s 766 mmHg 88%
    05:00 0°C° 0 mm 4 m/s 766 mmHg 88%
    06:00 0°C° 0 mm 4 m/s 767 mmHg 89%
    07:00 +1°C° 0 mm 3 m/s 767 mmHg 87%
    08:00 +1°C° 0 mm 3 m/s 768 mmHg 85%
    09:00 +2°C° 0 mm 2 m/s 769 mmHg 83%
    10:00 +2°C° 0 mm 3 m/s 769 mmHg 80%
    11:00 +3°C° 0 mm 3 m/s 770 mmHg 76%
    12:00 +5°C° 0 mm 3 m/s 770 mmHg 72%
    13:00 +5°C° 0 mm 3 m/s 770 mmHg 73%
    14:00 +5°C° 0 mm 3 m/s 771 mmHg 74%
    15:00 +5°C° 0 mm 3 m/s 771 mmHg 76%
    16:00 +4°C° 0 mm 3 m/s 771 mmHg 79%
    17:00 +3°C° 0 mm 3 m/s 772 mmHg 82%
    18:00 +1°C° 0 mm 4 m/s 773 mmHg 86%
    19:00 +1°C° 0 mm 4 m/s 773 mmHg 86%
    20:00 +1°C° 0 mm 4 m/s 774 mmHg 86%
    21:00 +1°C° 0 mm 4 m/s 774 mmHg 86%
    22:00 0°C° 0 mm 4 m/s 775 mmHg 87%
    23:00 0°C° 0 mm 4 m/s 776 mmHg 88%

    Demain, 19 Janvier, Dimanche

    Heure Température Précipitation Vent Pression Humidité
    00:00 0°C° 0 mm 4 m/s 776 mmHg 89%
    01:00 -1°C° 0 mm 4 m/s 777 mmHg 90%
    02:00 -1°C° 0 mm 5 m/s 777 mmHg 90%
    03:00 -1°C° 0 mm 5 m/s 777 mmHg 90%
    04:00 -1°C° 0 mm 5 m/s 778 mmHg 90%
    05:00 -1°C° 0 mm 5 m/s 778 mmHg 89%
    06:00 -1°C° 0 mm 5 m/s 779 mmHg 89%
    07:00 -1°C° 0 mm 5 m/s 779 mmHg 87%
    08:00 -1°C° 0 mm 4 m/s 780 mmHg 85%
    09:00 0°C° 0 mm 4 m/s 781 mmHg 83%
    10:00 +1°C° 0 mm 4 m/s 781 mmHg 79%
    11:00 +3°C° 0 mm 4 m/s 782 mmHg 75%
    12:00 +4°C° 0 mm 4 m/s 782 mmHg 71%
    13:00 +5°C° 0 mm 4 m/s 782 mmHg 72%
    14:00 +5°C° 0 mm 4 m/s 782 mmHg 72%
    15:00 +5°C° 0 mm 4 m/s 782 mmHg 73%
    16:00 +3°C° 0 mm 4 m/s 782 mmHg 76%
    17:00 +1°C° 0 mm 4 m/s 783 mmHg 79%
    18:00 0°C° 0 mm 4 m/s 783 mmHg 83%
    19:00 +1°C° 0 mm 3 m/s 783 mmHg 82%
    20:00 +1°C° 0 mm 3 m/s 783 mmHg 82%
    21:00 +1°C° 0 mm 3 m/s 784 mmHg 82%
    22:00 0°C° 0 mm 3 m/s 784 mmHg 82%
    23:00 0°C° 0 mm 3 m/s 784 mmHg 83%

    Après-demain, 20 Janvier, Lundi

    Heure Température Précipitation Vent Pression Humidité
    00:00 0°C° 0 mm 3 m/s 784 mmHg 84%
    01:00 0°C° 0 mm 3 m/s 784 mmHg 84%
    02:00 0°C° 0 mm 3 m/s 784 mmHg 85%
    03:00 0°C° 0 mm 3 m/s 784 mmHg 86%
    04:00 0°C° 0 mm 3 m/s 784 mmHg 85%
    05:00 0°C° 0 mm 3 m/s 784 mmHg 83%
    06:00 0°C° 0 mm 3 m/s 783 mmHg 82%
    07:00 0°C° 0 mm 3 m/s 784 mmHg 80%
    08:00 0°C° 0 mm 3 m/s 784 mmHg 79%
    09:00 +1°C° 0 mm 3 m/s 784 mmHg 77%
    10:00 +2°C° 0 mm 3 m/s 784 mmHg 73%
    11:00 +3°C° 0 mm 3 m/s 784 mmHg 69%
    12:00 +4°C° 0 mm 3 m/s 783 mmHg 65%
    13:00 +5°C° 0 mm 3 m/s 783 mmHg 67%
    14:00 +5°C° 0 mm 3 m/s 783 mmHg 69%
    15:00 +5°C° 0 mm 3 m/s 782 mmHg 70%
    16:00 +4°C° 0 mm 3 m/s 782 mmHg 72%
    17:00 +3°C° 0 mm 3 m/s 782 mmHg 74%
    18:00 0°C° 0 mm 4 m/s 782 mmHg 75%
    19:00 0°C° 0 mm 4 m/s 782 mmHg 76%
    20:00 +1°C° 0 mm 3 m/s 782 mmHg 77%
    21:00 +1°C° 0 mm 3 m/s 782 mmHg 77%
    22:00 +1°C° 0 mm 3 m/s 782 mmHg 79%
    23:00 0°C° 0 mm 4 m/s 781 mmHg 81%

    21 Janvier, Mardi

    Heure Température Précipitation Vent Pression Humidité
    00:00 0°C° 0 mm 4 m/s 781 mmHg 82%
    01:00 0°C° 0 mm 4 m/s 781 mmHg 84%
    02:00 +1°C° 0 mm 3 m/s 781 mmHg 86%
    03:00 +1°C° 0 mm 3 m/s 780 mmHg 88%
    04:00 +1°C° 0 mm 3 m/s 780 mmHg 89%
    05:00 +1°C° 0 mm 3 m/s 780 mmHg 90%
    06:00 +1°C° 0 mm 3 m/s 780 mmHg 91%
    07:00 +1°C° 0 mm 3 m/s 780 mmHg 90%
    08:00 +1°C° 0 mm 3 m/s 780 mmHg 90%
    09:00 +1°C° 0 mm 3 m/s 780 mmHg 90%
    10:00 +2°C° 0 mm 3 m/s 780 mmHg 84%
    11:00 +3°C° 0 mm 3 m/s 779 mmHg 79%
    12:00 +5°C° 0 mm 3 m/s 779 mmHg 74%
    13:00 +5°C° 0 mm 3 m/s 779 mmHg 75%
    14:00 +5°C° 0 mm 3 m/s 778 mmHg 76%
    15:00 +5°C° 0 mm 3 m/s 778 mmHg 77%
    16:00 +4°C° 0 mm 4 m/s 778 mmHg 80%
    17:00 +1°C° 0 mm 4 m/s 778 mmHg 83%
    18:00 0°C° 0 mm 4 m/s 778 mmHg 87%
    19:00 0°C° 0 mm 4 m/s 778 mmHg 86%
    20:00 0°C° 0 mm 4 m/s 777 mmHg 86%
    21:00 -1°C° 0 mm 4 m/s 777 mmHg 86%
    22:00 -1°C° 0 mm 4 m/s 777 mmHg 87%
    23:00 -1°C° 0 mm 4 m/s 777 mmHg 88%

    22 Janvier, Mercredi

    Heure Température Précipitation Vent Pression Humidité
    00:00 -1°C° 0 mm 4 m/s 776 mmHg 88%
    01:00 -1°C° 0 mm 4 m/s 776 mmHg 89%
    02:00 -1°C° 0 mm 4 m/s 776 mmHg 90%
    03:00 -1°C° 0 mm 5 m/s 776 mmHg 91%
    04:00 -1°C° 0 mm 5 m/s 775 mmHg 90%
    05:00 -2°C° 0 mm 5 m/s 775 mmHg 90%
    06:00 -2°C° 0 mm 5 m/s 775 mmHg 89%
    07:00 -1°C° 0 mm 5 m/s 775 mmHg 88%
    08:00 -1°C° 0 mm 5 m/s 775 mmHg 86%
    09:00 -1°C° 0 mm 5 m/s 775 mmHg 85%
    10:00 +1°C° 0 mm 5 m/s 775 mmHg 81%
    11:00 +2°C° 0 mm 6 m/s 775 mmHg 77%
    12:00 +3°C° 0 mm 6 m/s 775 mmHg 73%
    13:00 +3°C° 0 mm 6 m/s 774 mmHg 74%
    14:00 +3°C° 0 mm 6 m/s 774 mmHg 74%
    15:00 +3°C° 0 mm 6 m/s 773 mmHg 75%
    16:00 +2°C° 0 mm 6 m/s 773 mmHg 80%
    17:00 +2°C° 0 mm 6 m/s 773 mmHg 85%
    18:00 0°C° 0 mm 7 m/s 773 mmHg 90%
    19:00 0°C° 0 mm 7 m/s 773 mmHg 91%
    20:00 +2°C° 0 mm 7 m/s 773 mmHg 93%
    21:00 +3°C° 0 mm 7 m/s 773 mmHg 95%
    22:00 +3°C° 0 mm 7 m/s 773 mmHg 95%
    23:00 +3°C° 0 mm 7 m/s 773 mmHg 95%

    23 Janvier, Jeudi

    Heure Température Précipitation Vent Pression Humidité
    00:00 +4°C° 0 mm 7 m/s 772 mmHg 95%
    01:00 +4°C° 0 mm 7 m/s 772 mmHg 95%
    02:00 +4°C° 0 mm 7 m/s 772 mmHg 94%
    03:00 +4°C° 0 mm 7 m/s 772 mmHg 94%
    04:00 +4°C° 0 mm 7 m/s 771 mmHg 94%
    05:00 +4°C° 0 mm 7 m/s 771 mmHg 94%
    06:00 +4°C° 0 mm 7 m/s 771 mmHg 93%
    07:00 +4°C° 0 mm 7 m/s 771 mmHg 92%
    08:00 +4°C° 0 mm 7 m/s 771 mmHg 91%
    09:00 +4°C° 0 mm 7 m/s 771 mmHg 90%
    10:00 +4°C° 0 mm 7 m/s 771 mmHg 86%
    11:00 +4°C° 0 mm 7 m/s 771 mmHg 83%
    12:00 +4°C° 0 mm 7 m/s 770 mmHg 79%
    13:00 +4°C° 0 mm 7 m/s 770 mmHg 79%
    14:00 +4°C° 0 mm 7 m/s 769 mmHg 79%
    15:00 +4°C° 0 mm 7 m/s 769 mmHg 78%
    16:00 +4°C° 0 mm 7 m/s 769 mmHg 81%
    17:00 +3°C° 0 mm 6 m/s 768 mmHg 83%
    18:00 +2°C° 0 mm 6 m/s 768 mmHg 86%
    19:00 +2°C° 0 mm 6 m/s 768 mmHg 87%
    20:00 +2°C° 0 mm 6 m/s 768 mmHg 87%
    21:00 +2°C° 0 mm 6 m/s 767 mmHg 88%
    22:00 +2°C° 0 mm 5 m/s 767 mmHg 87%
    23:00 +2°C° 0 mm 5 m/s 767 mmHg 87%
    Voir plus